Location: ?ern� Novina
(50.6762°N, 14.8696°E)
Time: 02:58:16
(UTC+00:00)

SJ-11-01 - Pass Details

Date: 03 March 2021
Orbit: 685 x 700 km, 98.0° (Epoch: 13 April)

Event Time Altitude Azimuth Distance (km) Brightness Sun altitude
Rises 17:18:10 0° 155° (SSE) 3,046 7.4 -6.0°
Reaches altitude 10° 17:20:24 10° 152° (SSE) 2,136 6.6 -6.3°
Maximum altitude 17:25:01 64° 72° (ENE) 769 4.3 -7.1°
Drops below altitude 10° 17:29:42 10° 351° (N) 2,162 7.0 -7.8°
Sets 17:31:59 0° 349° (N) 3,086 7.8 -8.2°
